Regional Weather Roundup
Issued by NWS

Home | Current Version | Previous Version | Graphics & Text | Print | Product List | Glossary On
Versions: 1 2 3 4 5 6 7 8 9 10 11 12 13 14 15 16 17 18 19 20 21 22 23 24 25 26 27 28 29 30 31 32 33 34 35 36 37 38 39 40 41 42 43 44 45 46 47 48 49 50
000
ASUS44 KMEG 211110
RWRTN
TENNESSEE HOURLY STATE WEATHER ROUNDUP
NATIONAL WEATHER SERVICE MEMPHIS TN
600 AM CDT TUE OCT 21 2014

TNZ002-004-019-021-049-052-054-088>092-211200-
WEST TENNESSEE

CITY           SKY/WX    TMP DP  RH WIND       PRES   REMARKS
MEMPHIS INTL   CLEAR     55  52  89 CALM      30.05R
NWS MEMPHIS      N/A     51 N/A N/A MISG        N/A
JACKSON        CLEAR     47  45  93 CALM      30.05R
DYERSBURG        N/A     48  39  71 CALM      30.07R VSB 1/2
UNION CITY     CLOUDY    46  46 100 CALM      30.04R VSB 1/4
PARIS          MOCLDY    43  43 100 CALM      30.04S VSB 1/4
HUNTINGDON     CLEAR     44  44 100 CALM      30.05R
LEXINGTON      CLEAR     45  43  93 CALM      30.03R
SAVANNAH       CLEAR     45  45 100 CALM      30.05R
$$

TNZ008-025-027-028-033-062-065-066-211200-
NORTH MIDDLE TENNESSEE

CITY           SKY/WX    TMP DP  RH WIND       PRES   REMARKS
NASHVILLE      CLEAR     47  46  97 CALM      30.03R
CLARKSVILLE    CLEAR     49  48  97 CALM      30.03R FOG
SMYRNA         FOG       43  43 100 CALM      30.04R VSB 1
COOKEVILLE       N/A     39  39 100 CALM      30.02R VSB 1
CROSSVILLE     CLEAR     48  45  89 W5        30.02R
$$

TNZ061-075-076-078-094-096-097-211200-
SOUTH MIDDLE TENNESSEE

CITY           SKY/WX    TMP DP  RH WIND       PRES   REMARKS
FAYETTEVILLE   CLEAR     46  45  93 MISG      30.03S
TULLAHOMA      CLEAR     41  39  93 CALM      30.04R
WINCHESTER     PTCLDY    43  43 100 CALM      30.04R
MCMINNVILLE    CLEAR     45  45 100 CALM      30.03R
COLUMBIA       CLEAR    N/A N/A N/A CALM      30.02S
SHELBYVILLE    CLEAR     45  45 100 CALM      30.04R
$$

TNZ017-018-042-046-047-211200-
NORTHEAST TENNESSEE

CITY           SKY/WX    TMP DP  RH WIND       PRES   REMARKS
TRI CITIES     CLOUDY    50  49  96 CALM      29.97S
ELIZABETHTON   CLOUDY    54  50  87 W3        29.97F
$$

TNZ012-013-036-069-073-074-211200-
CENTRAL EAST TENNESSEE

CITY           SKY/WX    TMP DP  RH WIND       PRES   REMARKS
KNOXVILLE      PTCLDY    51  47  86 SW3       29.99R
OAK RIDGE      CLEAR     50  48  93 CALM      30.01R
GATLINBURG     SUNNY     46  46 100 CALM      29.99R
MORRISTOWN     SUNNY     52  48  87 CALM      29.99S
$$

TNZ083-085-099-211200-
SOUTHEAST TENNESSEE

CITY           SKY/WX    TMP DP  RH WIND       PRES   REMARKS
CHATTANOOGA    CLEAR     50  47  89 CALM      30.02S
$$

SKY/WX REPORTED AS FAIR MEANS FEW OR NO CLOUDS BELOW
12 THOUSAND FEET.




USA.gov is the U.S. government's official web portal to all federal, state and local government web resources and services.